Location: Carrigahorig
(53.0625°N, 8.1439°W)
Time: 00:36:16
(UTC+00:00)

Cosmos 1076 Rocket - Pass Details

Date: 15 May 2026
Orbit: 580 x 604 km, 82.5° (Epoch: 9 June)

Event Time Altitude Azimuth Distance (km) Brightness Sun altitude
Rises 22:27:42 0° 348° (NNW) 2,843 8.5 -13.3°
Reaches altitude 10° 22:29:55 10° 347° (NNW) 1,932 7.4 -13.4°
Maximum altitude 22:34:12 81° 260° (W) 602 3.5 -13.7°
Enters shadow 22:36:58 21° 176° (S) 1,339 4.7 -13.9°
